EUTELSAT KA-SAT 9A

Last updated on Mon Oct 14 2024 00:02:38 GMT+0000 (Coordinated Universal Time)

1 37258U 10069A 24287.29007771 .00000061 00000+0 00000+0 0 9992 2 37258 0.0817 287.8936 0000980 277.9769 289.8607 1.00273907 37874
UTC large
Height (km)
Speed (km/s)
/
Latitude / Longitude
Inclination (degrees)
Orbital Period (minutes)
Azimuth
Elevation
Range (km)
Doppler Factor

Next 0 passes for location: London (51.5072 / 0.1276)

Sorry there are no passes over London.